Find NOAA 11

NORAD ID: 19531 Int'l Des: 1988-089 Owner: NOAA Country: US operational
LEOCIRCULARRETROGRADESSO

Live Position

Loading 3D Globe...

About NOAA 11

Description loading...

Upcoming Passes

Passes for default location (London). Set your location on the main map for personalized predictions.

Altitude History

Loading altitude history...

Two-Line Element Set

1 19531U 88089A 26107.08969279 .00000025 00000-0 34056-4 0 9997
2 19531 98.6154 54.8493 0012093 111.2215 249.0253 14.15829120938834
Epoch: Apr 17, 2026 • Age: 11 hours

Current Status

Altitude 840.0 km
Velocity 7.44 km/s
Sub-Earth Point 54.69°N, 151.82°W
Launch Date Sep 24, 1988
Age 37.5 years
Type weather

Technical Details

Classification Payload
Mass 1030.00 kg
Dry Mass 1030.00 kg
Total Mass 1712.00 kg
Length 4.20 m
Diameter 1.90 m
Span 8.00 m
Shape Box + Pan
Manufacturer GEEW
Bus Type ATN
Phase Status In Orbit
Owner/State NOAA/US

Most Searched